TimeEST,TemperatureF,Dew PointF,Humidity,Sea Level PressureIn,VisibilityMPH,Wind Direction,Wind SpeedMPH,Gust SpeedMPH,PrecipitationIn,Events,Conditions,WindDirDegrees,DateUTC
12:54 AM,24.1,18.0,77,29.77,10.0,SW,5.8,-,N/A,,Overcast,230,2014-01-19 05:54:00
1:54 AM,23.0,17.1,78,29.76,10.0,WSW,3.5,-,N/A,,Overcast,250,2014-01-19 06:54:00
2:54 AM,23.0,17.1,78,29.75,10.0,NW,3.5,-,N/A,,Overcast,310,2014-01-19 07:54:00
3:54 AM,21.9,17.1,82,29.75,9.0,Calm,Calm,-,N/A,,Overcast,0,2014-01-19 08:54:00
4:54 AM,23.0,17.1,78,29.74,9.0,SW,4.6,-,N/A,,Overcast,220,2014-01-19 09:54:00
5:54 AM,21.9,15.1,75,29.73,10.0,SW,6.9,-,N/A,,Overcast,230,2014-01-19 10:54:00
6:54 AM,21.9,14.0,72,29.72,3.0,WSW,3.5,-,0.00,Snow,Light Snow,240,2014-01-19 11:54:00
7:01 AM,21.2,15.8,80,29.68,2.0,WSW,3.5,-,0.00,Snow,Light Snow,250,2014-01-19 12:01:00
7:09 AM,21.2,15.8,80,29.68,1.2,WSW,8.1,-,0.00,Snow,Light Snow,250,2014-01-19 12:09:00
7:19 AM,21.2,15.8,80,29.68,1.0,Variable,5.8,-,0.01,Snow,Light Snow,0,2014-01-19 12:19:00
7:33 AM,21.2,15.8,80,29.68,1.5,Variable,3.5,-,0.01,Snow,Light Snow,0,2014-01-19 12:33:00
7:54 AM,21.0,16.0,81,29.70,1.0,Calm,Calm,-,0.02,Snow,Light Snow,0,2014-01-19 12:54:00
8:21 AM,21.2,15.8,80,29.66,2.5,Calm,Calm,-,0.00,Snow,Light Snow,0,2014-01-19 13:21:00
8:29 AM,21.2,15.8,80,29.67,3.0,Calm,Calm,-,0.00,,Haze,0,2014-01-19 13:29:00
8:46 AM,21.2,17.6,86,29.66,1.8,Calm,Calm,-,0.00,Snow,Light Snow,0,2014-01-19 13:46:00
8:54 AM,21.9,17.1,82,29.70,1.2,Calm,Calm,-,0.00,Snow,Light Snow,0,2014-01-19 13:54:00
9:34 AM,21.2,15.8,80,29.66,0.8,WNW,4.6,-,0.00,Snow,Light Snow,290,2014-01-19 14:34:00
9:43 AM,21.2,15.8,80,29.66,1.2,WSW,6.9,-,0.00,Snow,Light Snow,240,2014-01-19 14:43:00
9:54 AM,21.9,17.1,82,29.69,1.5,Variable,3.5,-,0.00,Snow,Light Snow,0,2014-01-19 14:54:00
10:52 AM,24.8,17.6,74,29.62,2.0,South,4.6,-,0.01,Snow,Light Snow,190,2014-01-19 15:52:00
10:54 AM,24.1,18.0,77,29.65,2.0,South,4.6,-,0.01,Snow,Light Snow,190,2014-01-19 15:54:00
11:15 AM,24.8,17.6,74,29.60,1.8,Variable,4.6,-,0.00,Snow,Light Snow,0,2014-01-19 16:15:00
11:19 AM,24.8,17.6,74,29.60,2.0,SW,4.6,-,0.00,Snow,Light Snow,230,2014-01-19 16:19:00
11:26 AM,24.8,17.6,74,29.59,2.5,SW,6.9,-,0.00,Snow,Light Snow,230,2014-01-19 16:26:00
11:38 AM,24.8,19.4,80,29.58,1.2,SW,6.9,-,0.00,Snow,Light Snow,220,2014-01-19 16:38:00
11:46 AM,26.6,17.6,69,29.57,3.0,SW,9.2,-,0.00,Snow,Light Snow,220,2014-01-19 16:46:00
11:54 AM,26.1,17.1,69,29.59,6.0,SW,10.4,17.3,0.00,,Haze,220,2014-01-19 16:54:00
12:54 PM,27.0,16.0,63,29.55,10.0,SSW,11.5,-,N/A,,Overcast,210,2014-01-19 17:54:00
1:13 PM,26.6,15.8,64,29.52,10.0,SW,9.2,-,N/A,,Overcast,230,2014-01-19 18:13:00
1:54 PM,27.0,16.0,63,29.54,10.0,SW,6.9,16.1,N/A,,Overcast,230,2014-01-19 18:54:00
2:54 PM,28.0,16.0,61,29.52,10.0,WSW,8.1,-,N/A,,Overcast,240,2014-01-19 19:54:00
3:54 PM,28.9,16.0,58,29.52,10.0,SW,9.2,-,N/A,,Mostly Cloudy,220,2014-01-19 20:54:00
4:54 PM,28.0,16.0,61,29.51,10.0,SSW,8.1,-,N/A,,Overcast,210,2014-01-19 21:54:00
5:54 PM,28.9,16.0,58,29.53,10.0,SSW,10.4,-,N/A,,Overcast,200,2014-01-19 22:54:00
6:54 PM,28.9,16.0,58,29.55,10.0,SW,9.2,-,N/A,,Overcast,220,2014-01-19 23:54:00
7:54 PM,28.9,16.0,58,29.55,10.0,SW,8.1,-,N/A,,Overcast,230,2014-01-20 00:54:00
8:54 PM,28.9,17.1,61,29.55,10.0,SSW,9.2,-,N/A,,Overcast,210,2014-01-20 01:54:00
9:54 PM,30.0,18.0,61,29.54,10.0,Variable,3.5,-,N/A,,Overcast,0,2014-01-20 02:54:00
10:54 PM,30.9,18.0,59,29.53,10.0,SSW,5.8,-,N/A,,Overcast,210,2014-01-20 03:54:00
11:54 PM,30.0,19.0,64,29.53,10.0,SSW,6.9,-,N/A,,Overcast,210,2014-01-20 04:54:00